Weather History for Estherville, IA

Change the Weather History Date:

Wednesday, February 13, 2013

  Actual Average Record
Temperature  
Mean Temperature 33 °F 20 °F  
Max Temperature 43 °F 29 °F 60 °F (1990)
Min Temperature 23 °F 11 °F -15 °F (1970)
Degree Days  
Heating Degree Days 32 45  
Month to date heating degree days 537 609  
Since 1 July heating degree days 4931 5280  
Cooling Degree Days 0 0  
Month to date cooling degree days 0 0  
Year to date cooling degree days 0 0  
Moisture  
Dew Point 27 °F    
Average Humidity 79    
Maximum Humidity 88    
Minimum Humidity 70    
Precipitation  
Precipitation T in 0.01 in 0.57 in (2005)
Month to date precipitation 0.43 0.17  
Sea Level Pressure  
Sea Level Pressure 29.73 in    
Wind  
Wind Speed 10 mph (WSW)    
Max Wind Speed 25 mph    
Max Gust Speed 33 mph    
Visibility 10 miles    
Events      
T = Trace of Precipitation, MM = Missing Value Source: NWS Daily Summary

Daily Weather History Graph

Daily Weather History Graph

Search for Another Location

Airport:

Trip Planner

Search our weather history database for the weather conditions in past years. The results will help you decide how hot, cold, wet, or windy it might be!

Date:

Astronomy

Feb. 13, 2013 Rise Set
Actual Time 7:19 AM CST 5:47 PM CST
Civil Twilight 6:50 AM CST 6:16 PM CST
Nautical Twilight 6:16 AM CST 6:50 PM CST
Astronomical Twilight 5:43 AM CST 7:23 PM CST
Moon 8:41 AM CST (2/13) 10:00 PM CST (2/13)
Length of Visible Light 11h 26m
Length of Day
10h 27m
Waxing Crescent, 14% of the Moon is Illuminated
Feb 13
Waxing Crescent
Feb 17
First Quarter
Feb 25
Full
Mar 4
Last Quarter
Mar 11
New

Hourly Weather History & Observations

Time (CST) Temp. Windchill Dew Point Humidity Pressure Visibility Wind Dir Wind Speed Gust Speed Precip Events Conditions
12:52 AM 25.0 °F 20.7 °F 21.0 °F 85% 29.87 in 10.0 mi WNW 3.5 mph - N/A   Clear
1:52 AM 24.1 °F 17.0 °F 19.9 °F 84% 29.85 in 10.0 mi West 5.8 mph - N/A   Clear
2:52 AM 24.1 °F - 19.9 °F 84% 29.84 in 10.0 mi Calm Calm - N/A   Scattered Clouds
3:52 AM 24.1 °F 18.2 °F 19.9 °F 84% 29.83 in 10.0 mi West 4.6 mph - N/A   Overcast
4:52 AM 24.1 °F 19.7 °F 21.0 °F 88% 29.82 in 10.0 mi WNW 3.5 mph - N/A   Scattered Clouds
5:52 AM 24.1 °F 19.7 °F 21.0 °F 88% 29.81 in 10.0 mi WSW 3.5 mph - N/A   Overcast
6:52 AM 24.1 °F 19.7 °F 21.0 °F 88% 29.81 in 10.0 mi West 3.5 mph - N/A   Mostly Cloudy
7:52 AM 26.1 °F 21.9 °F 21.9 °F 84% 29.80 in 10.0 mi West 3.5 mph - N/A   Partly Cloudy
8:52 AM 28.0 °F 20.8 °F 24.1 °F 85% 29.80 in 10.0 mi SSW 6.9 mph - N/A   Partly Cloudy
9:52 AM 30.9 °F 22.2 °F 26.1 °F 82% 29.79 in 10.0 mi SW 10.4 mph - N/A   Clear
10:52 AM 35.1 °F 28.6 °F 28.9 °F 78% 29.76 in 10.0 mi SW 8.1 mph - N/A   Clear
11:52 AM 37.0 °F 28.9 °F 30.0 °F 76% 29.75 in 10.0 mi SW 12.7 mph - N/A   Clear
12:52 PM 39.9 °F 31.4 °F 32.0 °F 73% 29.73 in 10.0 mi SW 16.1 mph - N/A   Clear
1:52 PM 43.0 °F 35.4 °F 34.0 °F 71% 29.70 in 10.0 mi WSW 16.1 mph - N/A   Clear
2:52 PM 43.0 °F 36.4 °F 34.0 °F 71% 29.68 in 10.0 mi SW 12.7 mph - N/A   Partly Cloudy
3:52 PM 41.0 °F 34.3 °F 33.1 °F 73% 29.67 in 10.0 mi WSW 11.5 mph - N/A   Overcast
4:52 PM 39.0 °F 34.0 °F 32.0 °F 76% 29.65 in 10.0 mi SW 6.9 mph - N/A   Overcast
5:52 PM 39.0 °F 32.3 °F 32.0 °F 76% 29.66 in 10.0 mi WSW 10.4 mph - N/A   Overcast
6:52 PM 37.9 °F 30.0 °F 32.0 °F 79% 29.64 in 10.0 mi WSW 12.7 mph - 0.00 in   Overcast
7:52 PM 37.0 °F 29.3 °F 30.9 °F 79% 29.64 in 10.0 mi West 11.5 mph - N/A   Overcast
8:52 PM 37.9 °F 28.2 °F 30.0 °F 73% 29.64 in 10.0 mi West 18.4 mph 24.2 mph N/A   Mostly Cloudy
9:52 PM 36.0 °F 26.0 °F 30.0 °F 79% 29.65 in 10.0 mi WNW 17.3 mph - N/A   Clear
10:09 PM 35.6 °F 26.2 °F 30.2 °F 81% 29.61 in 10.0 mi WNW 15.0 mph - N/A   Mostly Cloudy
10:52 PM 36.0 °F 26.0 °F 30.9 °F 82% 29.65 in 10.0 mi West 17.3 mph - N/A   Overcast
11:52 PM 36.0 °F 25.6 °F 30.0 °F 79% 29.66 in 10.0 mi WNW 18.4 mph 28.8 mph N/A   Overcast